Torna al catalogo

FENGYUN 1C DEB

AttivoSSO
NORAD 31466·DEBRIS·🇨🇳 China

Lanciato May 10, 1999 da Taiyuan Satellite Launch Center

Loading…

Prossimi Passaggi (prossime 24 ore)

TLE

AggiornatoSource: Space-Track

Epoca: Sep 14, 2026, 02:50 UTC

1 31466U 99025BVE 26257.11861542  .00000116  00000-0  54199-4 0  9995
2 31466  99.1071 199.6119 0297795 244.9315 112.0679 14.18786800  1798

Traccia FENGYUN 1C DEB in tempo reale con AllMySat

Download on the App Store